FW9081 Weather Reports


Display with metric or nautical units.
time (UTC)temp
F
wind
direction
speed
MPH
gust
MPH
rain 1hr
in
rain 24hr
in
rain mn
in
humidity
%
barometer
mb
20260505052934 55 320 0.0 2.0 0.00 0.00 0.00 68 1014.1
20260505052434 54 252 0.0 2.0 0.00 0.00 0.00 70 1014.1
20260505051935 53 311 0.0 2.0 0.00 0.00 0.00 70 1014.1
20260505051435 53 299 0.0 1.0 0.00 0.00 0.00 71 1014.1
20260505050933 52 242 0.0 2.0 0.00 0.00 0.00 71 1014.1
20260505050437 52 319 1.0 2.0 0.00 0.00 0.00 72 1014.1
20260505041435 50 230 0.0 2.0 0.00 0.00 0.00 77 1014.0
20260505040934 50 228 1.0 2.0 0.00 0.00 0.00 77 1013.9
20260505040436 50 227 1.0 1.0 0.00 0.00 0.00 76 1013.9
20260505035933 49 284 0.0 1.0 0.00 0.00 0.00 76 1013.9
20260505035435 49 224 0.0 2.0 0.00 0.00 0.00 76 1013.8
20260505034934 49 235 0.0 2.0 0.00 0.00 0.00 77 1013.7
20260505034435 49 302 0.0 2.0 0.00 0.00 0.00 77 1013.7
20260505033935 50 299 0.0 2.0 0.00 0.00 0.00 77 1013.7
20260505033435 50 235 0.0 1.0 0.00 0.00 0.00 77 1013.6
20260505032934 50 333 0.0 1.0 0.00 0.00 0.00 77 1013.7
20260505032436 50 297 0.0 1.0 0.00 0.00 0.00 77 1013.6
20260505031934 50 257 0.0 1.0 0.00 0.00 0.00 77 1013.7
20260505031435 50 299 0.0 1.0 0.00 0.00 0.00 77 1013.7
20260505030934 50 304 0.0 1.0 0.00 0.00 0.00 77 1014.0
20260505030435 50 218 0.0 1.0 0.00 0.00 0.00 77 1013.7
20260505025935 50 309 0.0 1.0 0.00 0.00 0.00 77 1013.8
20260505025434 50 336 0.0 1.0 0.00 0.00 0.00 77 1014.0
20260505024934 50 242 0.0 1.0 0.00 0.00 0.00 77 1013.8
20260505024437 50 241 0.0 1.0 0.00 0.00 0.00 77 1013.9
20260505023936 50 224 0.0 1.0 0.00 0.00 0.00 77 1014.1
20260505023436 50 231 0.0 1.0 0.00 0.00 0.00 77 1014.1
20260505022933 50 242 0.0 2.0 0.00 0.00 0.00 77 1014.1
20260505022440 50 238 0.0 2.0 0.00 0.00 0.00 77 1014.1
20260505021938 51 242 0.0 1.0 0.00 0.00 0.00 77 1014.3
20260505021443 51 297 0.0 1.0 0.00 0.00 0.00 76 1014.1
20260505020937 51 283 0.0 0.0 0.00 0.00 0.00 76 1014.1
20260505020443 51 261 0.0 0.0 0.00 0.00 0.00 76 1014.2
20260505015938 51 246 0.0 1.0 0.00 0.00 0.00 75 1014.0
20260505015436 51 246 0.0 1.0 0.00 0.00 0.00 75 1014.3
20260505014933 51 252 0.0 1.0 0.00 0.00 0.00 75 1014.2
20260505014437 51 262 0.0 1.0 0.00 0.00 0.00 75 1014.3
20260505013933 51 297 0.0 1.0 0.00 0.00 0.00 75 1014.3
20260505013435 51 230 0.0 1.0 0.00 0.00 0.00 75 1014.2
20260505012933 51 230 0.0 1.0 0.00 0.00 0.00 75 1014.3
20260505012435 51 235 0.0 0.0 0.00 0.00 0.00 74 1014.4
20260505011935 51 299 0.0 0.0 0.00 0.00 0.00 74 1014.3
20260505011435 51 242 0.0 1.0 0.00 0.00 0.00 74 1014.5
20260505010934 51 233 0.0 1.0 0.00 0.00 0.00 74 1014.4
20260505010436 51 246 0.0 1.0 0.00 0.00 0.00 74 1014.3
20260505005935 51 229 1.0 1.0 0.00 0.00 0.00 73 1014.4
20260505005440 52 230 0.0 2.0 0.00 0.00 0.00 74 1014.3
20260505004938 52 269 0.0 2.0 0.00 0.00 0.00 73 1014.4
20260505004440 52 242 0.0 1.0 0.00 0.00 0.00 73 1014.5
20260505003937 52 301 0.0 1.0 0.00 0.00 0.00 74 1014.4
20260505003439 52 244 0.0 2.0 0.00 0.00 0.00 73 1014.3
20260505002938 52 233 1.0 2.0 0.00 0.00 0.00 74 1014.6
20260505002439 52 245 1.0 2.0 0.00 0.00 0.00 74 1014.4
20260505001939 52 227 1.0 2.0 0.00 0.00 0.00 74 1014.4
20260505001439 53 242 0.0 2.0 0.00 0.00 0.00 74 1014.5
20260505000937 53 240 0.0 2.0 0.00 0.00 0.00 74 1014.7
20260505000440 53 309 0.0 1.0 0.00 0.00 0.00 74 1014.5
20260504235938 53 264 0.0 2.0 0.00 0.00 0.00 74 1014.7
20260504235439 53 269 0.0 2.0 0.00 0.00 0.00 74 1014.4
20260504234937 53 220 0.0 1.0 0.00 0.00 0.00 74 1014.7
20260504234439 54 252 0.0 1.0 0.00 0.00 0.00 73 1014.6
20260504233939 54 275 0.0 1.0 0.00 0.00 0.00 73 1014.7
20260504233439 54 242 0.0 1.0 0.00 0.00 0.00 73 1014.9
20260504232938 54 269 0.0 1.0 0.00 0.00 0.00 72 1014.6
20260504232440 54 290 0.0 1.0 0.00 0.00 0.00 71 1014.7
20260504231937 54 245 0.0 1.0 0.00 0.00 0.00 71 1014.8
20260504231439 54 230 0.0 1.0 0.00 0.00 0.00 71 1014.8
20260504230938 55 230 0.0 1.0 0.00 0.00 0.00 71 1015.0
20260504230439 55 228 0.0 1.0 0.00 0.00 0.00 71 1015.0
20260504225939 55 297 0.0 1.0 0.00 0.00 0.00 70 1014.9
20260504225439 55 299 0.0 2.0 0.00 0.00 0.00 70 1014.8
20260504224938 55 237 0.0 2.0 0.00 0.00 0.00 70 1015.0
20260504224440 55 238 1.0 2.0 0.00 0.00 0.00 72 1015.1
20260504223939 55 229 1.0 2.0 0.00 0.00 0.00 71 1015.1
20260504223439 55 230 1.0 2.0 0.00 0.00 0.00 70 1015.0
20260504222938 56 228 0.0 2.0 0.00 0.00 0.00 70 1014.9
20260504222439 56 288 0.0 2.0 0.00 0.00 0.00 70 1015.0
20260504221940 56 315 0.0 1.0 0.00 0.00 0.00 70 1015.1
20260504221439 56 305 0.0 1.0 0.00 0.00 0.00 69 1015.2
20260504220938 56 315 0.0 1.0 0.00 0.00 0.00 68 1015.2
20260504220450 57 242 0.0 1.0 0.00 0.00 0.00 67 1015.1
20260504215937 57 246 0.0 2.0 0.00 0.00 0.00 66 1015.1
20260504215438 57 222 1.0 2.0 0.00 0.00 0.00 66 1015.1
20260504214938 57 235 0.0 1.0 0.00 0.00 0.00 65 1015.1
20260504214439 57 243 0.0 2.0 0.00 0.00 0.00 64 1015.0
20260504213940 57 242 0.0 2.0 0.00 0.00 0.00 64 1015.0
20260504213440 57 242 0.0 2.0 0.00 0.00 0.00 63 1015.1
20260504212938 58 232 0.0 1.0 0.00 0.00 0.00 63 1014.9
20260504212440 58 235 0.0 0.0 0.00 0.00 0.00 63 1014.8
20260504211938 58 242 0.0 1.0 0.00 0.00 0.00 62 1015.2
20260504211439 58 224 0.0 1.0 0.00 0.00 0.00 62 1015.1
20260504210937 58 242 0.0 1.0 0.00 0.00 0.00 62 1015.0
20260504210440 58 224 0.0 1.0 0.00 0.00 0.00 63 1015.1
20260504205933 58 230 0.0 1.0 0.00 0.00 0.00 61 1015.3
20260504205435 59 230 0.0 1.0 0.00 0.00 0.00 60 1015.2
20260504204934 59 235 0.0 1.0 0.00 0.00 0.00 62 1015.2
20260504204435 59 242 0.0 1.0 0.00 0.00 0.00 62 1014.8
20260504203936 59 256 0.0 1.0 0.00 0.00 0.00 61 1015.3
20260504203435 59 240 0.0 1.0 0.00 0.00 0.00 63 1015.2
20260504202934 59 293 0.0 2.0 0.00 0.00 0.00 61 1015.2
20260504202436 60 237 0.0 2.0 0.00 0.00 0.00 61 1015.3
20260504201934 60 230 0.0 1.0 0.00 0.00 0.00 60 1015.2
20260504201436 60 246 0.0 1.0 0.00 0.00 0.00 61 1015.2
20260504200933 60 213 0.0 2.0 0.00 0.00 0.00 60 1015.2
20260504200436 60 247 0.0 2.0 0.00 0.00 0.00 60 1015.3
20260504195935 61 230 0.0 2.0 0.00 0.00 0.00 59 1015.2
20260504194934 61 233 1.0 2.0 0.00 0.00 0.00 58 1015.1
20260504194436 62 253 0.0 1.0 0.00 0.00 0.00 57 1015.2
20260504193934 62 240 1.0 1.0 0.00 0.00 0.00 56 1015.3
20260504193435 62 236 1.0 1.0 0.00 0.00 0.00 56 1015.2
20260504192934 63 233 0.0 1.0 0.00 0.00 0.00 55 1015.1
20260504192435 63 297 0.0 1.0 0.00 0.00 0.00 55 1015.0
20260504191936 63 235 0.0 1.0 0.00 0.00 0.00 54 1015.0
20260504191435 63 255 0.0 1.0 0.00 0.00 0.00 54 1015.1
20260504190934 64 280 0.0 1.0 0.00 0.00 0.00 53 1015.1
20260504190436 64 281 0.0 1.0 0.00 0.00 0.00 53 1015.1
20260504185934 64 315 0.0 1.0 0.00 0.00 0.00 53 1015.2
20260504185435 64 224 0.0 1.0 0.00 0.00 0.00 52 1015.0
20260504184934 65 240 0.0 2.0 0.00 0.00 0.00 52 1015.1
20260504184436 65 242 0.0 2.0 0.00 0.00 0.00 50 1015.0
20260504183935 65 227 0.0 1.0 0.00 0.00 0.00 51 1015.1
20260504183435 66 259 0.0 1.0 0.00 0.00 0.00 49 1015.0
20260504182934 66 250 0.0 1.0 0.00 0.00 0.00 47 1014.9
20260504182435 67 228 0.0 1.0 0.00 0.00 0.00 47 1014.8
20260504181936 67 209 0.0 0.0 0.00 0.00 0.00 47 1014.9
20260504181435 67 258 0.0 0.0 0.00 0.00 0.00 47 1014.8
20260504180934 68 212 0.0 1.0 0.00 0.00 0.00 45 1014.9
20260504180436 68 242 0.0 1.0 0.00 0.00 0.00 46 1014.9
20260504175934 69 233 0.0 1.0 0.00 0.00 0.00 45 1015.0
20260504175435 69 228 1.0 1.0 0.00 0.00 0.00 43 1014.9
20260504174934 70 246 0.0 1.0 0.00 0.00 0.00 42 1014.8
20260504174437 70 224 0.0 1.0 0.00 0.00 0.00 41 1015.0
20260504173937 71 322 0.0 1.0 0.00 0.00 0.00 41 1014.9
20260504173434 71 230 0.0 1.0 0.00 0.00 0.00 40 1014.9
20260504172935 71 230 0.0 1.0 0.00 0.00 0.00 40 1014.9
20260504172436 72 224 0.0 1.0 0.00 0.00 0.00 39 1014.9
20260504171934 72 293 0.0 1.0 0.00 0.00 0.00 39 1014.9
20260504171435 72 246 0.0 0.0 0.00 0.00 0.00 38 1014.8
20260504170934 73 315 0.0 0.0 0.00 0.00 0.00 38 1014.8
20260504170437 73 217 0.0 1.0 0.00 0.00 0.00 37 1014.7
20260504160434 75 337 0.0 2.0 0.00 0.00 0.00 36 1015.0
20260504150934 75 50 0.0 2.0 0.00 0.00 0.00 36 1015.2
20260504150436 76 309 1.0 3.0 0.00 0.00 0.00 36 1015.2
20260504140935 76 355 2.0 3.0 0.00 0.00 0.00 35 1015.6
20260504140436 77 310 0.0 3.0 0.00 0.00 0.00 36 1015.7
20260504130435 81 350 2.0 3.0 0.00 0.00 0.00 34 1016.4
20260504110435 75 326 1.0 2.0 0.00 0.00 0.00 37 1017.9
20260504100434 72 180 0.0 2.0 0.00 0.00 0.00 39 1018.6
20260504081940 67 219 0.0 3.0 0.00 0.00 0.00 44 1019.2
20260504081439 67 317 0.0 3.0 0.00 0.00 0.00 44 1019.2
20260504080938 66 315 0.0 2.0 0.00 0.00 0.00 45 1019.3
20260504080441 66 309 0.0 2.0 0.00 0.00 0.00 45 1019.2